Tracking 19854 objects as of 23-Sep-2019
HD Live streaming from Space Station
objects crossing your sky now

ABS 3

Track ABS 3 now!
ABS 3 is classified as:


NORAD ID: 24901
Int'l Code: 1997-042A
Perigee: 36,061.7 km
Apogee: 36,097.8 km
Inclination: 6.4 °
Period: 1,450.7 minutes
Semi major axis: 42450 km
RCS: 10 m2 (large)
Launch date: August 19, 1997
Source: People's Republic of China (PRC)
Launch site: Xichang Space Center, China (XSC)

Most powerful telecommunications satellite in service in the Asia-Pacific region; 30 C-band, 24 Ku-band transponders; 190 high fidelity channels and 50,000 simultaneous telephone links.
aabbcc
Your satellite tracking list
Your tracking list is empty




NASA's NSSDC Master Catalog

Two Line Element Set (TLE):
1 24901U 97042A   19264.88310796 -.00000235  00000-0  00000+0 0  9992
2 24901   6.3911  59.0150 0004245 179.5739 196.1725  0.99260213 80791
Source of the keplerian elements: AFSPC